Home   Weather   Knoxville   Past weeks
Flag for USA

Past Weather in Knoxville, Tennessee, USA — Yesterday and Last 2 Weeks

Now
52 °F

Clear.


Feels Like: 52 °F
Forecast: 74 / 44 °F
Wind: No wind

Location: McGhee Tyson Airport

Current Time: Oct 14, 2019 at 5:19:30 am

Latest Report: Oct 14, 2019 at 3:53 am


Visibility: 10 mi

Pressure: 30.05 "Hg

Humidity: 86%

Dew Point: 48 °F

Location of KnoxvilleLocation

Past Weather in Knoxville — Graph

°F

Knoxville Temperature Yesterday

Maximum temperature yesterday: 73 °F (at 2:53 pm)
Minimum temperature yesterday: 47 °F (at 1:53 am)
Average temperature yesterday: 57 °F

High & Low Weather Summary for the Past Weeks

 TemperatureHumidityPressure
High95 °F (Sep 30, 4:53 pm)100% (Oct 9, 6:59 am)30.22 "Hg (Oct 9, 6:59 am)
Low47 °F (Oct 13, 1:53 am)23% (Oct 3, 4:53 pm)29.92 "Hg (Oct 2, 5:53 pm)
Average72 °F66%30.07 "Hg
* Reported Sep 29 3:53 am — Oct 14 3:53 am, Knoxville. Weather by CustomWeather, © 2019

Note: Actual official high and low records may vary slightly from our data, if they occured in-between our weather recording intervals... More about our weather records

Advertising

Knoxville Weather History for the Previous 24 Hours

Scroll right to see more
 ConditionsComfort  
Time TempWeatherWind HumidityBarometerVisibility
3:53 am
Mon, Oct 14
52 °FClear.No wind86%30.05 "Hg10 mi
2:53 am51 °FClear.3 mph86%30.05 "Hg10 mi
1:53 am52 °FClear.5 mph86%30.05 "Hg10 mi
12:53 am55 °FClear.5 mph74%30.04 "Hg10 mi
11:53 pm
Sun, Oct 13
55 °FClear.6 mph74%30.04 "Hg10 mi
10:53 pm58 °FPassing clouds.3 mph60%30.03 "Hg10 mi
9:53 pm56 °FPassing clouds.No wind55%30.02 "Hg10 mi
8:53 pm59 °FPassing clouds.5 mph46%30.00 "Hg10 mi
7:53 pm64 °FPassing clouds.6 mph35%29.99 "Hg10 mi
6:53 pm65 °FScattered clouds.6 mph39%29.99 "Hg10 mi
5:53 pm69 °FBroken clouds.5 mph35%29.98 "Hg10 mi
4:53 pm69 °FBroken clouds.8 mph35%29.98 "Hg10 mi
3:53 pm70 °FBroken clouds.9 mph30%29.98 "Hg10 mi
2:53 pm73 °FScattered clouds.9 mph23%29.98 "Hg10 mi
1:53 pm68 °FPassing clouds.5 mph42%30.00 "Hg10 mi
12:53 pm66 °FPassing clouds.7 mph50%30.04 "Hg10 mi
11:53 am60 °FMore clouds than sun.5 mph69%30.06 "Hg10 mi
11:28 am57 °FMore clouds than sun.No wind78%30.08 "Hg10 mi
11:00 am56 °FLow clouds.5 mph77%30.08 "Hg10 mi
9:53 am52 °FScattered clouds.3 mph83%30.07 "Hg10 mi
8:53 am49 °FPassing clouds.3 mph84%30.06 "Hg10 mi
7:53 am47 °FPassing clouds.3 mph86%30.05 "Hg10 mi
6:53 am47 °FPassing clouds.No wind86%30.05 "Hg10 mi
5:53 am47 °FPassing clouds.5 mph86%30.03 "Hg10 mi
Weather by CustomWeather, © 2019

See weather overview